User: anonymous   Login
Location: Darlington Observatory
(36.4817°N, 105.8156°W)
Time: 19:05:37
(UTC-06:00)
Language:

MOS 1 - Orbit

View from above orbital plane
View from above orbital plane
View from above satellite
View from above satellite

Ground track
Ground track

The orbit data is extracted from the following two-line orbital elements,

1 17527U 87018A   15087.51517823  .00000214  00000-0  16937-3 0  9995
2 17527 099.2447 077.3112 0008754 009.6390 149.0870 14.02365729435685
Epoch (UTC): 28 March 2015 12:21:51
Eccentricity: 0.0008754
inclination: 99.2447°
perigee height: 879 km
apogee height: 892 km
right ascension of ascending node: 77.3112°
argument of perigee: 9.6390°
revolutions per day: 14.02365729
mean anomaly at epoch: 149.0870°
orbit number at epoch: 43568

The dashed part of the orbit path shows where the satellite is in the earth's shadow,  

DLR